Zurück zum Katalog

MIYAN WULIAOYUAN

AktivKommunikationSSO
NORAD 63991·PAYLOAD·🇨🇳 China
Dieser Satellitenname wurde noch nicht durch offizielle Quellen bestätigt.

Gestartet May 14, 2025 von Jiuquan Satellite Launch Center

Loading…

Nächste Überflüge (nächste 24 Stunden)

TLE

AktuellSource: Space-Track

Epoche: Sep 14, 2026, 15:59 UTC

1 63991U 25100K   26257.66611480  .00008505  00000-0  38203-3 0  9997
2 63991  97.3558 328.3975 0009117  15.5083 344.6430 15.21360223 74228

Verfolge MIYAN WULIAOYUAN in Echtzeit mit AllMySat

Download on the App Store